TELSTAR 19V

Last updated on Fri Nov 07 2025 00:02:51 GMT+0000 (Coordinated Universal Time)

1 43562U 18059A 25310.19558569 -.00000270 00000+0 00000+0 0 9990 2 43562 0.0195 209.2545 0002476 335.5423 228.3027 1.00270155 26900
UTC large
Height (km)
Speed (km/s)
/
Latitude / Longitude
Inclination (degrees)
Orbital Period (minutes)
Azimuth
Elevation
Range (km)
Doppler Factor

Next 0 passes for location: London (51.5072 / 0.1276)

Sorry there are no passes over London.